Location: Aula-Vintri
(58.3875°N, 22.4322°E)
Time: 12:33:41
(UTC+00:00)

SL-08 R/B - Pass Details

Date: 13 October 2019
Orbit: 943 x 1009 km, 82.9° (Epoch: 12 November)

Event Time Altitude Azimuth Distance (km) Brightness Sun altitude
Rises 18:15:17 0° 347° (NNW) 3,678 8.0 -21.9°
Reaches altitude 10° 18:17:52 10° 351° (N) 2,718 7.2 -22.3°
Maximum altitude 18:24:01 62° 72° (ENE) 1,069 4.4 -23.0°
Enters shadow 18:25:29 49° 125° (SE) 1,221 4.6 -23.2°
